Weather History for Marathon, FL

Change the Weather History Date:

Wednesday, February 13, 2013

  Actual Average Record
Temperature  
Mean Temperature 81 °F 72 °F  
Max Temperature 86 °F 77 °F 86 °F (2013)
Min Temperature 75 °F 66 °F 52 °F (2006)
Degree Days  
Heating Degree Days 0 1  
Month to date heating degree days 0 9  
Since 1 July heating degree days 6 68  
Cooling Degree Days 16 7  
Month to date cooling degree days 121 86  
Year to date cooling degree days 449 267  
Growing Degree Days 30 (Base 50)    
Moisture  
Dew Point 70 °F    
Average Humidity 74    
Maximum Humidity 87    
Minimum Humidity 61    
Precipitation  
Precipitation 0.00 in 0.10 in 0.29 in (2007)
Month to date precipitation 0.00 0.98  
Year to date precipitation 0.54 2.59  
Snow  
Snow 0.00 in - - ()
Month to date snowfall 0.0  
Since 1 July snowfall 0.0  
Snow Depth 0.00 in    
Sea Level Pressure  
Sea Level Pressure 29.99 in    
Wind  
Wind Speed 5 mph (SSE)    
Max Wind Speed 9 mph    
Max Gust Speed 15 mph    
Visibility 9 miles    
Events      
T = Trace of Precipitation, MM = Missing Value Source: NWS Daily Summary

Daily Weather History Graph

Daily Weather History Graph

Search for Another Location

Airport:

Trip Planner

Search our weather history database for the weather conditions in past years. The results will help you decide how hot, cold, wet, or windy it might be!

Date:

Astronomy

Feb. 13, 2013 Rise Set
Actual Time 6:59 AM EST 6:17 PM EST
Civil Twilight 6:36 AM EST 6:41 PM EST
Nautical Twilight 6:09 AM EST 7:07 PM EST
Astronomical Twilight 5:42 AM EST 7:34 PM EST
Moon 8:57 AM EST (2/13) 9:46 PM EST (2/13)
Length of Visible Light 12h 04m
Length of Day
11h 18m
Waxing Crescent, 13% of the Moon is Illuminated
Feb 13
Waxing Crescent
Feb 17
First Quarter
Feb 25
Full
Mar 4
Last Quarter
Mar 11
New

Hourly Weather History & Observations

Time (EST) Temp. Heat Index Dew Point Humidity Pressure Visibility Wind Dir Wind Speed Gust Speed Precip Events Conditions
12:53 AM 75.9 °F - 70.0 °F 82% 30.02 in 9.0 mi SSE 4.6 mph - N/A   Mostly Cloudy
1:53 AM 75.9 °F - 70.0 °F 82% 30.01 in 9.0 mi SE 3.5 mph - N/A   Clear
2:53 AM 75.0 °F - 70.0 °F 84% 29.99 in 9.0 mi SE 4.6 mph - N/A   Scattered Clouds
3:06 AM 75.2 °F - 71.6 °F 89% 29.98 in 9.0 mi SE 4.6 mph - N/A   Mostly Cloudy
3:21 AM 75.2 °F - 71.6 °F 89% 29.98 in 9.0 mi SE 4.6 mph - N/A   Scattered Clouds
3:53 AM 75.0 °F - 71.1 °F 87% 29.97 in 8.0 mi SE 3.5 mph - N/A   Clear
4:53 AM 75.9 °F - 71.1 °F 85% 29.97 in 9.0 mi SSE 5.8 mph - N/A   Clear
5:53 AM 75.0 °F - 70.0 °F 84% 29.98 in 9.0 mi SSE 5.8 mph - N/A   Clear
6:53 AM 75.9 °F - 70.0 °F 82% 29.99 in 9.0 mi SSE 5.8 mph - N/A   Clear
7:53 AM 75.9 °F - 70.0 °F 82% 30.00 in 9.0 mi SSE 5.8 mph - N/A   Clear
8:53 AM 75.9 °F - 71.1 °F 85% 30.02 in 9.0 mi South 5.8 mph - N/A   Clear
9:53 AM 81.0 °F 84.4 °F 70.0 °F 69% 30.03 in 8.0 mi Variable 4.6 mph - N/A   Clear
10:53 AM 82.0 °F 85.9 °F 70.0 °F 67% 30.03 in 8.0 mi South 6.9 mph - N/A   Clear
11:53 AM 84.0 °F 88.4 °F 70.0 °F 63% 30.02 in 8.0 mi South 5.8 mph - N/A   Scattered Clouds
12:06 PM 82.4 °F 87.2 °F 71.6 °F 70% 30.02 in 8.0 mi Variable 4.6 mph - N/A   Mostly Cloudy
12:44 PM 84.2 °F 88.4 °F 69.8 °F 62% 30.00 in 9.0 mi SSW 6.9 mph - N/A   Scattered Clouds
12:53 PM 84.9 °F 89.4 °F 70.0 °F 61% 30.00 in 9.0 mi SSW 8.1 mph - N/A   Scattered Clouds
1:53 PM 84.0 °F 88.4 °F 70.0 °F 63% 29.98 in 9.0 mi South 6.9 mph - N/A   Clear
2:53 PM 82.0 °F 85.9 °F 70.0 °F 67% 29.96 in 10.0 mi South 6.9 mph - N/A   Partly Cloudy
3:53 PM 81.0 °F 84.4 °F 70.0 °F 69% 29.95 in 10.0 mi South 8.1 mph - N/A   Clear
4:53 PM 80.1 °F 82.7 °F 68.0 °F 67% 29.94 in 10.0 mi South 5.8 mph - N/A   Clear
5:53 PM 78.1 °F - 68.0 °F 71% 29.95 in 10.0 mi Calm Calm - N/A   Clear
6:53 PM 75.9 °F - 69.1 °F 79% 29.95 in 10.0 mi Calm Calm - N/A   Clear
7:53 PM 75.9 °F - 69.1 °F 79% 29.96 in 9.0 mi Calm Calm - N/A   Clear
8:53 PM 75.9 °F - 69.1 °F 79% 29.98 in 10.0 mi Calm Calm - N/A   Clear
9:53 PM 75.9 °F - 70.0 °F 82% 29.99 in 10.0 mi SSE 5.8 mph - N/A   Clear
10:53 PM 75.9 °F - 70.0 °F 82% 30.00 in 10.0 mi South 5.8 mph - N/A   Clear
11:53 PM 77.0 °F - 70.0 °F 79% 29.99 in 10.0 mi SSE 5.8 mph - N/A   Mostly Cloudy